Location: Gleizolles
(44.4833°N, 6.7667°E)
Time: 11:23:05
(UTC+00:00)

Envisat - Pass Details

Date: 07 December 2021
Orbit: 764 x 766 km, 98.2° (Epoch: 20 January)

Event Time Altitude Azimuth Distance (km) Brightness Sun altitude
Rises 16:36:26 0° 198° (SSW) 3,219 6.9 -7.6°
Reaches altitude 10° 16:39:06 10° 211° (SSW) 2,298 6.4 -8.1°
Maximum altitude 16:43:16 26° 266° (W) 1,494 5.5 -8.8°
Drops below altitude 10° 16:47:29 10° 322° (NW) 2,312 5.7 -9.4°
Sets 16:50:11 0° 335° (NNW) 3,243 6.3 -9.9°
